When you browse on this site, cookies collect data to enhance your experience and personalize the content and advertising you see.
Visit our Privacy Policy to learn more. By continuing to use the site, you agree to this use of cookies and data.
  • En España
  • Lista de países
  • Para 7 días
  • Temperatura del agua
  • El tiempo en el mapa
  • Informadores
  • user-avatar
    Iniciar sesión

    Tiempo cada hora Makoterty

    Hoy, 14 Octubre, Lunes

    Tiempo Temperatura Precipitaciones Viento Presión Humedad
    00:00 +12°C° 0 mm 3 mps 746 mmHg 78%
    01:00 +12°C° 0 mm 3 mps 747 mmHg 79%
    02:00 +13°C° 0 mm 2 mps 746 mmHg 81%
    03:00 +12°C° 0 mm 2 mps 746 mmHg 81%
    04:00 +12°C° 0 mm 2 mps 746 mmHg 80%
    05:00 +12°C° 0 mm 2 mps 746 mmHg 79%
    06:00 +13°C° 0 mm 2 mps 746 mmHg 77%
    07:00 +13°C° 0 mm 2 mps 746 mmHg 75%
    08:00 +13°C° 0 mm 2 mps 746 mmHg 72%
    09:00 +14°C° 0 mm 3 mps 746 mmHg 66%
    10:00 +17°C° 0 mm 3 mps 746 mmHg 60%
    11:00 +19°C° 0 mm 4 mps 746 mmHg 53%
    12:00 +20°C° 0 mm 4 mps 746 mmHg 50%
    13:00 +21°C° 0 mm 4 mps 746 mmHg 47%
    14:00 +22°C° 0 mm 4 mps 746 mmHg 44%
    15:00 +21°C° 0 mm 3 mps 746 mmHg 50%
    16:00 +20°C° 0 mm 3 mps 745 mmHg 55%
    17:00 +18°C° 0 mm 2 mps 745 mmHg 61%
    18:00 +17°C° 0 mm 2 mps 745 mmHg 64%
    19:00 +16°C° 0 mm 2 mps 745 mmHg 66%
    20:00 +15°C° 0 mm 2 mps 745 mmHg 69%
    21:00 +15°C° 0 mm 2 mps 745 mmHg 72%
    22:00 +15°C° 0 mm 2 mps 745 mmHg 74%
    23:00 +14°C° 0 mm 2 mps 745 mmHg 76%

    Mañana, 15 Octubre, Martes

    Tiempo Temperatura Precipitaciones Viento Presión Humedad
    00:00 +14°C° 0 mm 2 mps 745 mmHg 78%
    01:00 +14°C° 0 mm 1 mps 745 mmHg 79%
    02:00 +13°C° 0 mm 1 mps 745 mmHg 81%
    03:00 +13°C° 0 mm 1 mps 745 mmHg 82%
    04:00 +13°C° 0 mm 1 mps 745 mmHg 83%
    05:00 +12°C° 0 mm 0 mps 745 mmHg 84%
    06:00 +13°C° 0 mm 1 mps 745 mmHg 81%
    07:00 +14°C° 0 mm 1 mps 745 mmHg 79%
    08:00 +14°C° 0 mm 2 mps 745 mmHg 77%
    09:00 +16°C° 0 mm 2 mps 745 mmHg 70%
    10:00 +18°C° 0 mm 2 mps 745 mmHg 62%
    11:00 +20°C° 0 mm 3 mps 745 mmHg 55%
    12:00 +21°C° 0 mm 3 mps 745 mmHg 52%
    13:00 +22°C° 0 mm 3 mps 745 mmHg 49%
    14:00 +22°C° 0 mm 4 mps 745 mmHg 46%
    15:00 +21°C° 0 mm 3 mps 744 mmHg 50%
    16:00 +20°C° 0 mm 3 mps 744 mmHg 54%
    17:00 +18°C° 0 mm 3 mps 743 mmHg 58%
    18:00 +18°C° 0 mm 3 mps 743 mmHg 60%
    19:00 +17°C° 0 mm 3 mps 743 mmHg 61%
    20:00 +15°C° 0 mm 4 mps 743 mmHg 63%
    21:00 +14°C° 0 mm 4 mps 743 mmHg 66%
    22:00 +14°C° 0 mm 4 mps 743 mmHg 69%
    23:00 +13°C° 0 mm 4 mps 743 mmHg 73%

    Pasado mañana, 16 Octubre, Miércoles

    Tiempo Temperatura Precipitaciones Viento Presión Humedad
    00:00 +13°C° 0 mm 4 mps 743 mmHg 75%
    01:00 +13°C° 0 mm 4 mps 743 mmHg 77%
    02:00 +12°C° 0 mm 4 mps 743 mmHg 79%
    03:00 +12°C° 0 mm 4 mps 743 mmHg 77%
    04:00 +12°C° 0 mm 4 mps 743 mmHg 75%
    05:00 +12°C° 0 mm 4 mps 743 mmHg 74%
    06:00 +12°C° 0 mm 5 mps 743 mmHg 72%
    07:00 +12°C° 0 mm 5 mps 743 mmHg 71%
    08:00 +12°C° 0 mm 5 mps 743 mmHg 69%
    09:00 +14°C° 0 mm 5 mps 743 mmHg 65%
    10:00 +16°C° 0 mm 5 mps 743 mmHg 60%
    11:00 +19°C° 0 mm 4 mps 743 mmHg 56%
    12:00 +20°C° 0 mm 4 mps 743 mmHg 53%
    13:00 +21°C° 0 mm 4 mps 743 mmHg 50%
    14:00 +22°C° 0 mm 4 mps 743 mmHg 48%
    15:00 +21°C° 0 mm 3 mps 743 mmHg 52%
    16:00 +20°C° 0 mm 3 mps 743 mmHg 57%
    17:00 +19°C° 0 mm 2 mps 743 mmHg 62%
    18:00 +18°C° 0 mm 2 mps 743 mmHg 65%
    19:00 +17°C° 0 mm 2 mps 744 mmHg 68%
    20:00 +16°C° 0 mm 2 mps 744 mmHg 72%
    21:00 +15°C° 0 mm 2 mps 744 mmHg 75%
    22:00 +15°C° 0 mm 2 mps 744 mmHg 77%
    23:00 +15°C° 0 mm 2 mps 744 mmHg 80%

    17 Octubre, Jueves

    Tiempo Temperatura Precipitaciones Viento Presión Humedad
    00:00 +14°C° 0 mm 1 mps 744 mmHg 83%
    01:00 +14°C° 0 mm 1 mps 745 mmHg 85%
    02:00 +14°C° 0 mm 1 mps 745 mmHg 87%
    03:00 +14°C° 0 mm 1 mps 745 mmHg 87%
    04:00 +14°C° 0 mm 1 mps 745 mmHg 87%
    05:00 +13°C° 0 mm 1 mps 745 mmHg 87%
    06:00 +13°C° 0 mm 0 mps 745 mmHg 85%
    07:00 +13°C° 0 mm 0 mps 745 mmHg 84%
    08:00 +13°C° 0 mm 0 mps 745 mmHg 82%
    09:00 +16°C° 0 mm 1 mps 745 mmHg 76%
    10:00 +18°C° 0 mm 1 mps 745 mmHg 69%
    11:00 +20°C° 0 mm 1 mps 746 mmHg 62%
    12:00 +19°C° 0 mm 2 mps 745 mmHg 60%
    13:00 +20°C° 0 mm 2 mps 745 mmHg 58%
    14:00 +21°C° 0 mm 2 mps 745 mmHg 56%
    15:00 +19°C° 0 mm 2 mps 745 mmHg 60%
    16:00 +18°C° 0 mm 2 mps 745 mmHg 63%
    17:00 +18°C° 0 mm 1 mps 745 mmHg 67%
    18:00 +16°C° 0 mm 1 mps 745 mmHg 68%
    19:00 +15°C° 0 mm 1 mps 745 mmHg 69%
    20:00 +14°C° 0 mm 1 mps 746 mmHg 71%
    21:00 +13°C° 0 mm 1 mps 746 mmHg 70%
    22:00 +13°C° 0 mm 1 mps 746 mmHg 70%
    23:00 +11°C° 0 mm 0 mps 746 mmHg 70%

    18 Octubre, Viernes

    Tiempo Temperatura Precipitaciones Viento Presión Humedad
    00:00 +11°C° 0 mm 0 mps 746 mmHg 71%
    01:00 +11°C° 0 mm 0 mps 746 mmHg 71%
    02:00 +11°C° 0 mm 0 mps 746 mmHg 72%
    03:00 +10°C° 0 mm 0 mps 746 mmHg 73%
    04:00 +10°C° 0 mm 0 mps 746 mmHg 74%
    05:00 +10°C° 0 mm 0 mps 746 mmHg 75%
    06:00 +11°C° 0 mm 1 mps 746 mmHg 74%
    07:00 +12°C° 0 mm 1 mps 747 mmHg 73%
    08:00 +12°C° 0 mm 1 mps 747 mmHg 72%
    09:00 +14°C° 0 mm 1 mps 747 mmHg 67%
    10:00 +16°C° 0 mm 1 mps 747 mmHg 62%
    11:00 +17°C° 0 mm 2 mps 747 mmHg 56%
    12:00 +19°C° 0 mm 1 mps 747 mmHg 55%
    13:00 +20°C° 0 mm 1 mps 747 mmHg 54%
    14:00 +20°C° 0 mm 1 mps 747 mmHg 52%
    15:00 +18°C° 0 mm 2 mps 747 mmHg 56%
    16:00 +17°C° 0 mm 2 mps 746 mmHg 60%
    17:00 +16°C° 0 mm 2 mps 746 mmHg 65%
    18:00 +15°C° 0 mm 2 mps 746 mmHg 66%
    19:00 +15°C° 0 mm 2 mps 746 mmHg 67%
    20:00 +13°C° 0 mm 3 mps 746 mmHg 68%
    21:00 +12°C° 0 mm 3 mps 746 mmHg 71%
    22:00 +12°C° 0 mm 3 mps 747 mmHg 73%
    23:00 +12°C° 0 mm 3 mps 747 mmHg 75%

    19 Octubre, Sábado

    Tiempo Temperatura Precipitaciones Viento Presión Humedad
    00:00 +11°C° 0 mm 3 mps 746 mmHg 77%
    01:00 +11°C° 0 mm 3 mps 746 mmHg 79%
    02:00 +11°C° 0 mm 3 mps 746 mmHg 81%
    03:00 +11°C° 0 mm 3 mps 746 mmHg 82%
    04:00 +11°C° 0 mm 3 mps 746 mmHg 83%
    05:00 +11°C° 0 mm 3 mps 746 mmHg 84%
    06:00 +11°C° 0 mm 3 mps 746 mmHg 83%
    07:00 +11°C° 0 mm 3 mps 746 mmHg 81%
    08:00 +12°C° 0 mm 3 mps 746 mmHg 80%
    09:00 +13°C° 0 mm 4 mps 746 mmHg 72%
    10:00 +15°C° 0 mm 4 mps 746 mmHg 65%
    11:00 +18°C° 0 mm 4 mps 746 mmHg 57%
    12:00 +19°C° 0 mm 4 mps 746 mmHg 52%
    13:00 +20°C° 0 mm 5 mps 746 mmHg 47%
    14:00 +21°C° 0 mm 5 mps 746 mmHg 43%
    15:00 +20°C° 0 mm 4 mps 745 mmHg 47%
    16:00 +19°C° 0 mm 4 mps 745 mmHg 52%
    17:00 +17°C° 0 mm 3 mps 745 mmHg 56%
    18:00 +16°C° 0 mm 3 mps 745 mmHg 58%
    19:00 +16°C° 0 mm 3 mps 745 mmHg 59%
    20:00 +14°C° 0 mm 4 mps 745 mmHg 61%
    21:00 +13°C° 0 mm 4 mps 745 mmHg 61%
    22:00 +13°C° 0 mm 4 mps 745 mmHg 61%
    23:00 +13°C° 0 mm 4 mps 745 mmHg 61%
    Mostrar más